Time,TemperatureF,DewpointF,PressureIn,WindDirection,WindDirectionDegrees,WindSpeedMPH,WindSpeedGustMPH,Humidity,HourlyPrecipIn,Conditions,Clouds,dailyrainin,SoftwareType,DateUTC
2013-11-06 00:03:00,55.4,3.7,29.19,South,180,5.0,15.0,12,0.00,,,0.00,meteohub,2013-11-06 06:03:00,
2013-11-06 00:08:00,55.8,4.1,29.19,SE,135,10.0,15.0,12,0.00,,,0.00,meteohub,2013-11-06 06:08:00,
2013-11-06 00:14:00,55.9,4.1,29.19,SSW,202,3.0,12.0,12,0.00,,,0.00,meteohub,2013-11-06 06:14:00,
2013-11-06 00:19:00,56.1,4.3,29.19,SSE,158,6.0,14.0,12,0.00,,,0.00,meteohub,2013-11-06 06:19:00,
2013-11-06 00:24:00,56.3,4.5,29.19,SSE,158,13.0,14.0,12,0.00,,,0.00,meteohub,2013-11-06 06:24:00,
2013-11-06 00:29:00,56.3,4.5,29.16,SSE,158,13.0,14.0,12,0.00,,,0.00,meteohub,2013-11-06 06:29:00,
2013-11-06 00:34:00,56.7,4.8,29.16,SSE,158,6.0,13.0,12,0.00,,,0.00,meteohub,2013-11-06 06:34:00,
2013-11-06 00:39:00,56.7,4.8,29.16,SSE,158,6.0,15.0,12,0.00,,,0.00,meteohub,2013-11-06 06:39:00,
2013-11-06 00:44:00,56.7,4.8,29.16,SSW,202,10.0,15.0,12,0.00,,,0.00,meteohub,2013-11-06 06:44:00,
2013-11-06 00:49:00,56.7,4.8,29.16,ESE,112,4.0,15.0,12,0.00,,,0.00,meteohub,2013-11-06 06:49:00,
2013-11-06 00:54:00,56.1,4.3,29.16,WNW,292,6.0,13.0,12,0.00,,,0.00,meteohub,2013-11-06 06:54:00,
2013-11-06 00:59:00,55.9,4.1,29.16,South,180,5.0,13.0,12,0.00,,,0.00,meteohub,2013-11-06 06:59:00,
2013-11-06 01:04:00,55.8,4.1,29.16,SSE,158,10.0,13.0,12,0.00,,,0.00,meteohub,2013-11-06 07:04:00,
2013-11-06 01:09:00,55.4,8.6,29.16,South,180,9.0,14.0,15,0.00,,,0.00,meteohub,2013-11-06 07:09:00,
2013-11-06 01:14:00,55.2,8.4,29.16,SE,135,3.0,14.0,15,0.00,,,0.00,meteohub,2013-11-06 07:14:00,
2013-11-06 01:19:00,55.0,8.2,29.16,SSE,158,9.0,15.0,15,0.00,,,0.00,meteohub,2013-11-06 07:19:00,
2013-11-06 01:24:00,55.2,8.4,29.16,SSE,158,7.0,15.0,15,0.00,,,0.00,meteohub,2013-11-06 07:24:00,
2013-11-06 01:29:00,55.2,8.4,29.16,SSW,202,4.0,15.0,15,0.00,,,0.00,meteohub,2013-11-06 07:29:00,
2013-11-06 01:34:00,55.2,8.4,29.16,SSW,202,6.0,11.0,15,0.00,,,0.00,meteohub,2013-11-06 07:34:00,
2013-11-06 01:39:00,55.4,8.6,29.16,SW,225,13.0,13.0,15,0.00,,,0.00,meteohub,2013-11-06 07:39:00,
2013-11-06 01:44:00,55.4,8.6,29.13,SE,135,10.0,13.0,15,0.00,,,0.00,meteohub,2013-11-06 07:44:00,
2013-11-06 01:49:00,55.6,8.8,29.13,SE,135,7.0,13.0,15,0.00,,,0.00,meteohub,2013-11-06 07:49:00,
2013-11-06 01:54:00,55.6,8.8,29.13,SE,135,4.0,13.0,15,0.00,,,0.00,meteohub,2013-11-06 07:54:00,
2013-11-06 01:59:00,55.8,9.0,29.10,South,180,6.0,15.0,15,0.00,,,0.00,meteohub,2013-11-06 07:59:00,
2013-11-06 02:04:00,55.8,9.0,29.10,SE,135,5.0,15.0,15,0.00,,,0.00,meteohub,2013-11-06 08:04:00,
2013-11-06 02:09:00,55.9,9.0,29.10,SSE,158,5.0,15.0,15,0.00,,,0.00,meteohub,2013-11-06 08:09:00,
2013-11-06 02:15:00,56.1,9.1,29.13,SSE,158,5.0,10.0,15,0.00,,,0.00,meteohub,2013-11-06 08:15:00,
2013-11-06 02:20:00,56.3,9.3,29.13,South,180,7.0,12.0,15,0.00,,,0.00,meteohub,2013-11-06 08:20:00,
2013-11-06 02:25:00,56.5,4.6,29.13,SSW,202,8.0,13.0,12,0.00,,,0.00,meteohub,2013-11-06 08:25:00,
2013-11-06 02:30:00,56.5,9.5,29.10,SSW,202,11.0,13.0,15,0.00,,,0.00,meteohub,2013-11-06 08:30:00,
2013-11-06 02:35:00,56.5,9.5,29.10,South,180,8.0,13.0,15,0.00,,,0.00,meteohub,2013-11-06 08:35:00,
2013-11-06 02:40:00,56.5,9.5,29.10,SW,225,6.0,13.0,15,0.00,,,0.00,meteohub,2013-11-06 08:40:00,
2013-11-06 02:45:00,56.3,9.3,29.10,ESE,112,6.0,15.0,15,0.00,,,0.00,meteohub,2013-11-06 08:45:00,
2013-11-06 02:50:00,55.9,11.8,29.10,SSW,202,8.0,15.0,17,0.00,,,0.00,meteohub,2013-11-06 08:50:00,
2013-11-06 02:55:00,55.4,17.2,29.10,South,180,8.0,15.0,22,0.00,,,0.00,meteohub,2013-11-06 08:55:00,
2013-11-06 03:00:00,54.9,20.7,29.13,SSW,202,4.0,15.0,26,0.00,,,0.00,meteohub,2013-11-06 09:00:00,
2013-11-06 03:05:00,54.5,22.1,29.13,SSE,158,5.0,15.0,28,0.00,,,0.00,meteohub,2013-11-06 09:05:00,
2013-11-06 03:10:00,54.3,22.8,29.13,SSW,202,9.0,15.0,29,0.00,,,0.00,meteohub,2013-11-06 09:10:00,
2013-11-06 03:15:00,54.1,25.0,29.10,SSW,202,6.0,11.0,32,0.00,,,0.00,meteohub,2013-11-06 09:15:00,
2013-11-06 03:20:00,54.1,26.4,29.10,SSW,202,5.0,11.0,34,0.00,,,0.00,meteohub,2013-11-06 09:20:00,
2013-11-06 03:25:00,54.0,27.0,29.10,WSW,248,9.0,11.0,35,0.00,,,0.00,meteohub,2013-11-06 09:25:00,
2013-11-06 03:30:00,54.0,27.7,29.10,SSW,202,6.0,11.0,36,0.00,,,0.00,meteohub,2013-11-06 09:30:00,
2013-11-06 03:35:00,54.0,27.7,29.10,SSE,158,15.0,15.0,36,0.00,,,0.00,meteohub,2013-11-06 09:35:00,
2013-11-06 03:40:00,54.0,28.4,29.10,SSW,202,4.0,15.0,37,0.00,,,0.00,meteohub,2013-11-06 09:40:00,
2013-11-06 03:45:00,54.0,28.4,29.10,WSW,248,8.0,15.0,37,0.00,,,0.00,meteohub,2013-11-06 09:45:00,
2013-11-06 03:50:00,54.0,28.9,29.10,SSW,202,5.0,15.0,38,0.00,,,0.00,meteohub,2013-11-06 09:50:00,
2013-11-06 03:55:00,54.0,28.9,29.10,South,180,10.0,12.0,38,0.00,,,0.00,meteohub,2013-11-06 09:55:00,
2013-11-06 04:00:00,54.1,29.1,29.10,SE,135,10.0,13.0,38,0.00,,,0.00,meteohub,2013-11-06 10:00:00,
2013-11-06 04:05:00,54.3,29.3,29.10,SSW,202,6.0,13.0,38,0.00,,,0.00,meteohub,2013-11-06 10:05:00,
2013-11-06 04:10:00,54.5,29.5,29.10,SSW,202,11.0,13.0,38,0.00,,,0.00,meteohub,2013-11-06 10:10:00,
2013-11-06 04:16:00,54.5,29.5,29.10,SSW,202,6.0,13.0,38,0.00,,,0.00,meteohub,2013-11-06 10:16:00,
2013-11-06 04:21:00,54.7,28.9,29.10,ESE,112,11.0,13.0,37,0.00,,,0.00,meteohub,2013-11-06 10:21:00,
2013-11-06 04:26:00,54.7,28.9,29.07,South,180,3.0,11.0,37,0.00,,,0.00,meteohub,2013-11-06 10:26:00,
2013-11-06 04:31:00,54.9,29.1,29.07,South,180,9.0,13.0,37,0.00,,,0.00,meteohub,2013-11-06 10:31:00,
2013-11-06 04:36:00,54.9,29.1,29.07,SSW,202,11.0,17.0,37,0.00,,,0.00,meteohub,2013-11-06 10:36:00,
2013-11-06 04:41:00,54.9,29.1,29.07,SSE,158,9.0,17.0,37,0.00,,,0.00,meteohub,2013-11-06 10:41:00,
2013-11-06 04:46:00,54.9,29.1,29.07,SSE,158,6.0,14.0,37,0.00,,,0.00,meteohub,2013-11-06 10:46:00,
2013-11-06 04:51:00,55.0,29.3,29.07,WSW,248,8.0,15.0,37,0.00,,,0.00,meteohub,2013-11-06 10:51:00,
2013-11-06 04:56:00,54.9,29.1,29.07,SSW,202,9.0,15.0,37,0.00,,,0.00,meteohub,2013-11-06 10:56:00,
2013-11-06 05:01:00,55.0,29.3,29.07,SSW,202,11.0,15.0,37,0.00,,,0.00,meteohub,2013-11-06 11:01:00,
2013-11-06 05:06:00,54.9,29.1,29.07,South,180,6.0,15.0,37,0.00,,,0.00,meteohub,2013-11-06 11:06:00,
2013-11-06 05:11:00,54.9,29.8,29.07,SSW,202,8.0,14.0,38,0.00,,,0.00,meteohub,2013-11-06 11:11:00,
2013-11-06 05:16:00,54.7,30.2,29.07,South,180,6.0,16.0,39,0.00,,,0.00,meteohub,2013-11-06 11:16:00,
2013-11-06 05:21:00,54.5,30.0,29.07,South,180,6.0,16.0,39,0.00,,,0.00,meteohub,2013-11-06 11:21:00,
2013-11-06 05:26:00,54.5,30.7,29.07,SSE,158,5.0,15.0,40,0.00,,,0.00,meteohub,2013-11-06 11:26:00,
2013-11-06 05:31:00,54.5,31.3,29.07,SSW,202,7.0,15.0,41,0.00,,,0.00,meteohub,2013-11-06 11:31:00,
2013-11-06 05:36:00,54.5,31.3,29.07,South,180,13.0,15.0,41,0.00,,,0.00,meteohub,2013-11-06 11:36:00,
2013-11-06 05:41:00,54.7,31.5,29.07,SSE,158,7.0,13.0,41,0.00,,,0.00,meteohub,2013-11-06 11:41:00,
2013-11-06 05:46:00,54.9,31.1,29.07,South,180,7.0,22.0,40,0.00,,,0.00,meteohub,2013-11-06 11:46:00,
2013-11-06 05:51:00,54.9,31.1,29.07,SSW,202,6.0,22.0,40,0.00,,,0.00,meteohub,2013-11-06 11:51:00,
2013-11-06 05:56:00,54.9,31.1,29.10,SSW,202,6.0,22.0,40,0.00,,,0.00,meteohub,2013-11-06 11:56:00,
2013-11-06 06:01:00,54.7,31.5,29.10,SSW,202,7.0,17.0,41,0.00,,,0.00,meteohub,2013-11-06 12:01:00,
2013-11-06 06:06:00,54.5,31.3,29.10,SSE,158,11.0,19.0,41,0.00,,,0.00,meteohub,2013-11-06 12:06:00,
2013-11-06 06:11:00,54.5,31.3,29.07,SSE,158,8.0,19.0,41,0.00,,,0.00,meteohub,2013-11-06 12:11:00,
2013-11-06 06:16:00,54.5,32.0,29.07,SSW,202,10.0,19.0,42,0.00,,,0.00,meteohub,2013-11-06 12:16:00,
2013-11-06 06:21:00,54.5,32.0,29.07,SW,225,10.0,18.0,42,0.00,,,0.00,meteohub,2013-11-06 12:21:00,
2013-11-06 06:26:00,54.5,32.0,29.07,WSW,248,13.0,18.0,42,0.00,,,0.00,meteohub,2013-11-06 12:26:00,
2013-11-06 06:31:00,54.3,31.8,29.07,SSW,202,5.0,17.0,42,0.00,,,0.00,meteohub,2013-11-06 12:31:00,
2013-11-06 06:36:00,54.3,32.4,29.07,SSW,202,13.0,15.0,43,0.00,,,0.00,meteohub,2013-11-06 12:36:00,
2013-11-06 06:42:00,54.3,32.4,29.07,SSW,202,3.0,14.0,43,0.00,,,0.00,meteohub,2013-11-06 12:42:00,
2013-11-06 06:47:00,54.3,32.9,29.07,SW,225,11.0,17.0,44,0.00,,,0.00,meteohub,2013-11-06 12:47:00,
2013-11-06 06:52:00,54.1,32.7,29.07,SSW,202,6.0,17.0,44,0.00,,,0.00,meteohub,2013-11-06 12:52:00,
2013-11-06 06:57:00,54.1,32.7,29.07,South,180,6.0,17.0,44,0.00,,,0.00,meteohub,2013-11-06 12:57:00,
2013-11-06 07:02:00,54.1,32.7,29.07,SSW,202,6.0,13.0,44,0.00,,,0.00,meteohub,2013-11-06 13:02:00,
2013-11-06 07:07:00,54.1,32.7,29.07,SSW,202,11.0,13.0,44,0.00,,,0.00,meteohub,2013-11-06 13:07:00,
2013-11-06 07:12:00,54.1,32.7,29.07,WSW,248,8.0,13.0,44,0.00,,,0.00,meteohub,2013-11-06 13:12:00,
2013-11-06 07:17:00,54.1,32.7,29.07,SSE,158,8.0,12.0,44,0.00,,,0.00,meteohub,2013-11-06 13:17:00,
2013-11-06 07:21:00,54.1,33.3,29.07,SSW,202,5.0,15.0,45,0.00,,,0.00,meteohub,2013-11-06 13:21:00,
2013-11-06 07:27:00,54.0,33.1,29.07,South,180,9.0,15.0,45,0.00,,,0.00,meteohub,2013-11-06 13:27:00,
2013-11-06 07:32:00,54.0,33.1,29.07,South,180,8.0,15.0,45,0.00,,,0.00,meteohub,2013-11-06 13:32:00,
2013-11-06 07:37:00,54.0,33.1,29.07,South,180,7.0,15.0,45,0.00,,,0.00,meteohub,2013-11-06 13:37:00,
2013-11-06 07:42:00,54.1,32.7,29.07,SSE,158,9.0,15.0,44,0.00,,,0.00,meteohub,2013-11-06 13:42:00,
2013-11-06 07:47:00,54.1,32.7,29.07,South,180,11.0,15.0,44,0.00,,,0.00,meteohub,2013-11-06 13:47:00,
2013-11-06 07:52:00,53.8,32.4,29.07,South,180,8.0,20.0,44,0.00,,,0.00,meteohub,2013-11-06 13:52:00,
2013-11-06 07:57:00,54.0,33.1,29.07,SSW,202,9.0,20.0,45,0.00,,,0.00,meteohub,2013-11-06 13:57:00,
2013-11-06 08:02:00,54.0,33.1,29.07,SSW,202,10.0,20.0,45,0.00,,,0.00,meteohub,2013-11-06 14:02:00,
2013-11-06 08:07:00,54.0,33.1,29.07,SSW,202,9.0,18.0,45,0.00,,,0.00,meteohub,2013-11-06 14:07:00,
2013-11-06 08:12:00,54.0,33.1,29.07,WSW,248,15.0,15.0,45,0.00,,,0.00,meteohub,2013-11-06 14:12:00,
2013-11-06 08:17:00,54.1,33.3,29.07,South,180,9.0,15.0,45,0.00,,,0.00,meteohub,2013-11-06 14:17:00,
2013-11-06 08:22:00,54.1,33.3,29.07,WSW,248,6.0,15.0,45,0.00,,,0.00,meteohub,2013-11-06 14:22:00,
2013-11-06 08:27:00,54.1,33.3,29.04,West,270,10.0,15.0,45,0.00,,,0.00,meteohub,2013-11-06 14:27:00,
2013-11-06 08:32:00,54.1,33.3,29.04,SW,225,10.0,13.0,45,0.00,,,0.00,meteohub,2013-11-06 14:32:00,
2013-11-06 08:37:00,54.1,33.3,29.04,South,180,11.0,14.0,45,0.00,,,0.00,meteohub,2013-11-06 14:37:00,
2013-11-06 08:42:00,54.1,33.3,29.04,SSE,158,4.0,15.0,45,0.00,,,0.00,meteohub,2013-11-06 14:42:00,
2013-11-06 08:47:00,54.1,33.8,29.04,SSW,202,11.0,20.0,46,0.00,,,0.00,meteohub,2013-11-06 14:47:00,
2013-11-06 08:52:00,54.1,33.8,29.04,SSW,202,10.0,20.0,46,0.00,,,0.00,meteohub,2013-11-06 14:52:00,
2013-11-06 08:57:00,54.1,33.8,29.04,SSW,202,8.0,19.0,46,0.00,,,0.00,meteohub,2013-11-06 14:57:00,
2013-11-06 09:02:00,54.1,33.8,29.04,SSW,202,13.0,17.0,46,0.00,,,0.00,meteohub,2013-11-06 15:02:00,
2013-11-06 09:07:00,54.1,33.8,29.04,SSW,202,11.0,17.0,46,0.00,,,0.00,meteohub,2013-11-06 15:07:00,
2013-11-06 09:12:00,54.1,34.3,29.04,SSW,202,17.0,17.0,47,0.00,,,0.00,meteohub,2013-11-06 15:12:00,
2013-11-06 09:17:00,54.1,34.3,29.04,SSW,202,10.0,17.0,47,0.00,,,0.00,meteohub,2013-11-06 15:17:00,
2013-11-06 09:22:00,54.1,34.3,29.04,SW,225,9.0,17.0,47,0.00,,,0.00,meteohub,2013-11-06 15:22:00,
2013-11-06 09:27:00,54.1,34.3,29.01,SSW,202,13.0,17.0,47,0.00,,,0.00,meteohub,2013-11-06 15:27:00,
2013-11-06 09:32:00,54.3,34.5,29.01,SW,225,10.0,14.0,47,0.00,,,0.00,meteohub,2013-11-06 15:32:00,
2013-11-06 09:37:00,54.3,34.0,29.01,WSW,248,6.0,14.0,46,0.00,,,0.00,meteohub,2013-11-06 15:37:00,
2013-11-06 09:42:00,54.3,34.0,29.01,SW,225,11.0,13.0,46,0.00,,,0.00,meteohub,2013-11-06 15:42:00,
2013-11-06 09:47:00,54.3,34.0,29.01,South,180,5.0,13.0,46,0.00,,,0.00,meteohub,2013-11-06 15:47:00,
2013-11-06 09:52:00,54.3,34.0,29.01,SSW,202,3.0,13.0,46,0.00,,,0.00,meteohub,2013-11-06 15:52:00,
2013-11-06 09:57:00,54.3,34.0,29.01,SSE,158,10.0,15.0,46,0.00,,,0.00,meteohub,2013-11-06 15:57:00,
2013-11-06 10:02:00,54.3,34.0,29.01,SSW,202,10.0,24.0,46,0.00,,,0.00,meteohub,2013-11-06 16:02:00,
2013-11-06 10:07:00,54.3,34.0,29.01,SW,225,8.0,24.0,46,0.00,,,0.00,meteohub,2013-11-06 16:07:00,
2013-11-06 10:11:00,54.3,34.5,29.01,SSW,202,5.0,20.0,47,0.00,,,0.00,meteohub,2013-11-06 16:11:00,
2013-11-06 10:17:00,54.3,34.5,29.01,WSW,248,6.0,20.0,47,0.00,,,0.00,meteohub,2013-11-06 16:17:00,
2013-11-06 10:22:00,54.3,34.5,29.01,South,180,10.0,14.0,47,0.00,,,0.00,meteohub,2013-11-06 16:22:00,
2013-11-06 10:27:00,54.3,34.5,29.01,SSE,158,6.0,17.0,47,0.00,,,0.00,meteohub,2013-11-06 16:27:00,
2013-11-06 10:32:00,54.3,34.5,29.01,SSW,202,9.0,17.0,47,0.00,,,0.00,meteohub,2013-11-06 16:32:00,
2013-11-06 10:37:00,54.5,34.2,29.01,SSW,202,8.0,17.0,46,0.00,,,0.00,meteohub,2013-11-06 16:37:00,
2013-11-06 10:42:00,54.5,34.2,28.98,SSW,202,12.0,15.0,46,0.00,,,0.00,meteohub,2013-11-06 16:42:00,
2013-11-06 10:47:00,54.5,34.2,28.98,SSW,202,8.0,15.0,46,0.00,,,0.00,meteohub,2013-11-06 16:47:00,
2013-11-06 10:52:00,54.5,33.6,28.98,SSW,202,6.0,13.0,45,0.00,,,0.00,meteohub,2013-11-06 16:52:00,
2013-11-06 10:57:00,54.5,33.6,29.01,SSW,202,6.0,13.0,45,0.00,,,0.00,meteohub,2013-11-06 16:57:00,
2013-11-06 11:02:00,54.5,33.6,29.01,SSW,202,12.0,16.0,45,0.00,,,0.00,meteohub,2013-11-06 17:02:00,
2013-11-06 11:07:00,54.7,33.3,29.01,WSW,248,8.0,16.0,44,0.00,,,0.00,meteohub,2013-11-06 17:07:00,
2013-11-06 11:12:00,54.7,33.3,28.98,ESE,112,6.0,16.0,44,0.00,,,0.00,meteohub,2013-11-06 17:12:00,
2013-11-06 11:17:00,54.9,32.9,28.98,SSW,202,10.0,14.0,43,0.00,,,0.00,meteohub,2013-11-06 17:17:00,
2013-11-06 11:22:00,54.9,32.9,28.98,WSW,248,6.0,13.0,43,0.00,,,0.00,meteohub,2013-11-06 17:22:00,
2013-11-06 11:27:00,54.9,32.9,28.98,SSW,202,10.0,12.0,43,0.00,,,0.00,meteohub,2013-11-06 17:27:00,
2013-11-06 11:32:00,54.9,32.2,28.98,SW,225,3.0,15.0,42,0.00,,,0.00,meteohub,2013-11-06 17:32:00,
2013-11-06 11:37:00,55.0,32.4,28.98,SSW,202,12.0,15.0,42,0.00,,,0.00,meteohub,2013-11-06 17:37:00,
2013-11-06 11:42:00,55.0,32.4,28.98,North,0,4.0,15.0,42,0.00,,,0.00,meteohub,2013-11-06 17:42:00,
2013-11-06 11:46:00,55.0,31.8,28.98,SSW,202,10.0,15.0,41,0.00,,,0.00,meteohub,2013-11-06 17:46:00,
2013-11-06 11:52:00,55.2,32.0,28.98,SSW,202,6.0,15.0,41,0.00,,,0.00,meteohub,2013-11-06 17:52:00,
2013-11-06 11:57:00,55.2,32.0,28.98,SSE,158,11.0,15.0,41,0.00,,,0.00,meteohub,2013-11-06 17:57:00,
2013-11-06 12:02:00,55.2,31.3,28.98,SSW,202,6.0,13.0,40,0.00,,,0.00,meteohub,2013-11-06 18:02:00,
2013-11-06 12:07:00,55.2,31.3,28.98,WSW,248,11.0,13.0,40,0.00,,,0.00,meteohub,2013-11-06 18:07:00,
2013-11-06 12:12:00,55.2,32.0,29.01,SSW,202,6.0,13.0,41,0.00,,,0.00,meteohub,2013-11-06 18:12:00,
2013-11-06 12:17:00,55.0,31.8,29.01,ENE,68,7.0,13.0,41,0.00,,,0.00,meteohub,2013-11-06 18:17:00,
2013-11-06 12:22:00,55.0,32.4,29.01,SSW,202,11.0,14.0,42,0.00,,,0.00,meteohub,2013-11-06 18:22:00,
2013-11-06 12:27:00,54.9,33.4,28.98,WSW,248,11.0,14.0,44,0.00,,,0.00,meteohub,2013-11-06 18:27:00,
2013-11-06 12:32:00,54.7,33.8,28.98,WSW,248,6.0,14.0,45,0.00,,,0.00,meteohub,2013-11-06 18:32:00,
2013-11-06 12:37:00,54.7,34.3,28.98,WSW,248,8.0,19.0,46,0.00,,,0.00,meteohub,2013-11-06 18:37:00,
2013-11-06 12:41:00,54.7,34.3,28.98,SSW,202,11.0,19.0,46,0.00,,,0.00,meteohub,2013-11-06 18:41:00,
2013-11-06 12:46:00,54.7,34.3,28.98,SSW,202,15.0,15.0,46,0.00,,,0.00,meteohub,2013-11-06 18:46:00,
2013-11-06 12:51:00,54.5,33.6,28.98,SSW,202,13.0,19.0,45,0.00,,,0.00,meteohub,2013-11-06 18:51:00,
2013-11-06 12:56:00,54.3,32.4,29.01,WSW,248,11.0,21.0,43,0.00,,,0.00,meteohub,2013-11-06 18:56:00,
2013-11-06 13:01:00,53.8,30.7,29.01,WNW,292,3.0,21.0,41,0.00,,,0.00,meteohub,2013-11-06 19:01:00,
2013-11-06 13:06:00,53.2,30.2,29.01,WNW,292,7.0,21.0,41,0.00,,,0.00,meteohub,2013-11-06 19:06:00,
2013-11-06 13:11:00,53.1,30.0,29.01,SW,225,9.0,13.0,41,0.00,,,0.00,meteohub,2013-11-06 19:11:00,
2013-11-06 13:16:00,52.7,30.4,29.01,West,270,8.0,13.0,42,0.00,,,0.00,meteohub,2013-11-06 19:16:00,
2013-11-06 13:21:00,52.5,29.5,29.01,WNW,292,8.0,13.0,41,0.00,,,0.00,meteohub,2013-11-06 19:21:00,
2013-11-06 13:26:00,52.5,29.5,29.01,WSW,248,6.0,13.0,41,0.00,,,0.00,meteohub,2013-11-06 19:26:00,
2013-11-06 13:31:00,52.2,27.3,29.01,WNW,292,8.0,13.0,38,0.00,,,0.00,meteohub,2013-11-06 19:31:00,
2013-11-06 13:37:00,52.0,26.6,29.01,WSW,248,10.0,13.0,37,0.00,,,0.00,meteohub,2013-11-06 19:37:00,
2013-11-06 13:42:00,51.6,26.2,29.04,WSW,248,4.0,13.0,37,0.00,,,0.00,meteohub,2013-11-06 19:42:00,
2013-11-06 13:47:00,51.3,25.9,29.04,West,270,10.0,13.0,37,0.00,,,0.00,meteohub,2013-11-06 19:47:00,
2013-11-06 13:52:00,50.9,26.2,29.04,WSW,248,9.0,12.0,38,0.00,,,0.00,meteohub,2013-11-06 19:52:00,
2013-11-06 13:57:00,50.2,26.2,29.04,WNW,292,8.0,12.0,39,0.00,,,0.00,meteohub,2013-11-06 19:57:00,
2013-11-06 14:02:00,49.3,24.1,29.04,WNW,292,11.0,15.0,37,0.00,,,0.00,meteohub,2013-11-06 20:02:00,
2013-11-06 14:07:00,48.7,23.7,29.04,WNW,292,10.0,15.0,37,0.00,,,0.00,meteohub,2013-11-06 20:07:00,
2013-11-06 14:12:00,48.4,24.1,29.04,NW,315,6.0,14.0,38,0.00,,,0.00,meteohub,2013-11-06 20:12:00,
2013-11-06 14:17:00,48.0,23.7,29.04,WNW,292,13.0,14.0,38,0.00,,,0.00,meteohub,2013-11-06 20:17:00,
2013-11-06 14:22:00,47.8,23.5,29.04,WNW,292,4.0,13.0,38,0.00,,,0.00,meteohub,2013-11-06 20:22:00,
2013-11-06 14:27:00,47.5,23.2,29.04,WSW,248,12.0,13.0,38,0.00,,,0.00,meteohub,2013-11-06 20:27:00,
2013-11-06 14:32:00,47.3,23.0,29.04,WSW,248,10.0,16.0,38,0.00,,,0.00,meteohub,2013-11-06 20:32:00,
2013-11-06 14:37:00,47.3,23.7,29.04,WNW,292,5.0,16.0,39,0.00,,,0.00,meteohub,2013-11-06 20:37:00,
2013-11-06 14:42:00,47.1,23.5,29.07,WSW,248,4.0,16.0,39,0.00,,,0.00,meteohub,2013-11-06 20:42:00,
2013-11-06 14:47:00,46.6,21.7,29.07,SSW,202,4.0,10.0,37,0.00,,,0.00,meteohub,2013-11-06 20:47:00,
2013-11-06 14:52:00,46.2,22.1,29.07,WNW,292,4.0,13.0,38,0.00,,,0.00,meteohub,2013-11-06 20:52:00,
2013-11-06 14:57:00,46.0,21.9,29.07,WNW,292,10.0,13.0,38,0.00,,,0.00,meteohub,2013-11-06 20:57:00,
2013-11-06 15:02:00,45.7,21.6,29.07,NNW,338,10.0,13.0,38,0.00,,,0.00,meteohub,2013-11-06 21:02:00,
2013-11-06 15:07:00,45.5,21.4,29.07,NW,315,13.0,15.0,38,0.00,,,0.00,meteohub,2013-11-06 21:07:00,
2013-11-06 15:12:00,45.3,21.9,29.10,NNW,338,8.0,15.0,39,0.00,,,0.00,meteohub,2013-11-06 21:12:00,
2013-11-06 15:17:00,45.1,21.7,29.10,WSW,248,4.0,15.0,39,0.00,,,0.00,meteohub,2013-11-06 21:17:00,
2013-11-06 15:22:00,44.8,21.4,29.10,WNW,292,6.0,13.0,39,0.00,,,0.00,meteohub,2013-11-06 21:22:00,
2013-11-06 15:27:00,44.6,21.7,29.10,WSW,248,8.0,11.0,40,0.00,,,0.00,meteohub,2013-11-06 21:27:00,
2013-11-06 15:32:00,44.2,22.1,29.10,West,270,9.0,10.0,41,0.00,,,0.00,meteohub,2013-11-06 21:32:00,
2013-11-06 15:37:00,44.1,21.9,29.10,WNW,292,5.0,14.0,41,0.00,,,0.00,meteohub,2013-11-06 21:37:00,
2013-11-06 15:42:00,43.7,21.0,29.10,NNW,338,8.0,14.0,40,0.00,,,0.00,meteohub,2013-11-06 21:42:00,
2013-11-06 15:47:00,43.5,20.3,29.10,WNW,292,6.0,15.0,39,0.00,,,0.00,meteohub,2013-11-06 21:47:00,
2013-11-06 15:52:00,43.3,20.1,29.10,WSW,248,6.0,15.0,39,0.00,,,0.00,meteohub,2013-11-06 21:52:00,
2013-11-06 15:57:00,43.3,20.1,29.13,WNW,292,8.0,15.0,39,0.00,,,0.00,meteohub,2013-11-06 21:57:00,
2013-11-06 16:02:00,43.0,20.3,29.13,NW,315,10.0,12.0,40,0.00,,,0.00,meteohub,2013-11-06 22:02:00,
2013-11-06 16:07:00,42.8,20.1,29.13,WNW,292,10.0,12.0,40,0.00,,,0.00,meteohub,2013-11-06 22:07:00,
2013-11-06 16:12:00,42.8,20.1,29.13,WNW,292,5.0,11.0,40,0.00,,,0.00,meteohub,2013-11-06 22:12:00,
2013-11-06 16:17:00,42.6,20.1,29.13,NNW,338,7.0,11.0,40,0.00,,,0.00,meteohub,2013-11-06 22:17:00,
2013-11-06 16:22:00,42.4,19.9,29.13,WNW,292,5.0,11.0,40,0.00,,,0.00,meteohub,2013-11-06 22:22:00,
2013-11-06 16:27:00,42.4,19.2,29.13,NNW,338,6.0,11.0,39,0.00,,,0.00,meteohub,2013-11-06 22:27:00,
2013-11-06 16:32:00,42.3,19.0,29.13,West,270,9.0,13.0,39,0.00,,,0.00,meteohub,2013-11-06 22:32:00,
2013-11-06 16:37:00,42.3,19.0,29.13,WNW,292,4.0,13.0,39,0.00,,,0.00,meteohub,2013-11-06 22:37:00,
2013-11-06 16:42:00,42.3,19.8,29.13,NNW,338,6.0,11.0,40,0.00,,,0.00,meteohub,2013-11-06 22:42:00,
2013-11-06 16:47:00,42.1,19.6,29.13,NNW,338,3.0,10.0,40,0.00,,,0.00,meteohub,2013-11-06 22:47:00,
2013-11-06 16:52:00,42.1,19.0,29.13,WNW,292,6.0,13.0,39,0.00,,,0.00,meteohub,2013-11-06 22:52:00,
2013-11-06 16:56:00,42.1,19.0,29.19,WNW,292,6.0,13.0,39,0.00,,,0.00,meteohub,2013-11-06 22:56:00,
2013-11-06 17:02:00,41.9,18.9,29.19,WNW,292,7.0,13.0,39,0.00,,,0.00,meteohub,2013-11-06 23:02:00,
2013-11-06 17:07:00,41.9,18.9,29.19,West,270,6.0,12.0,39,0.00,,,0.00,meteohub,2013-11-06 23:07:00,
2013-11-06 17:12:00,42.1,19.0,29.19,WNW,292,8.0,9.0,39,0.00,,,0.00,meteohub,2013-11-06 23:12:00,
2013-11-06 17:17:00,42.1,19.0,29.19,WNW,292,4.0,9.0,39,0.00,,,0.00,meteohub,2013-11-06 23:17:00,
2013-11-06 17:22:00,42.1,19.0,29.19,West,270,5.0,9.0,39,0.00,,,0.00,meteohub,2013-11-06 23:22:00,
2013-11-06 17:27:00,42.3,19.0,29.19,NW,315,5.0,8.0,39,0.00,,,0.00,meteohub,2013-11-06 23:27:00,
2013-11-06 17:32:00,42.3,19.0,29.19,WNW,292,4.0,8.0,39,0.00,,,0.00,meteohub,2013-11-06 23:32:00,
2013-11-06 17:37:00,42.3,17.2,29.19,NNW,338,9.0,11.0,36,0.00,,,0.00,meteohub,2013-11-06 23:37:00,
2013-11-06 17:42:00,42.3,13.8,29.19,WSW,248,6.0,17.0,31,0.00,,,0.00,meteohub,2013-11-06 23:42:00,
2013-11-06 17:47:00,42.1,13.6,29.19,WNW,292,11.0,17.0,31,0.00,,,0.00,meteohub,2013-11-06 23:47:00,
2013-11-06 17:52:00,42.1,13.6,29.19,NNW,338,4.0,17.0,31,0.00,,,0.00,meteohub,2013-11-06 23:52:00,
2013-11-06 17:57:00,42.1,14.4,29.19,WNW,292,10.0,13.0,32,0.00,,,0.00,meteohub,2013-11-06 23:57:00,
2013-11-06 18:02:00,42.1,14.4,29.19,WNW,292,3.0,13.0,32,0.00,,,0.00,meteohub,2013-11-07 00:02:00,
2013-11-06 18:07:00,42.1,14.4,29.19,NNW,338,7.0,13.0,32,0.00,,,0.00,meteohub,2013-11-07 00:07:00,
2013-11-06 18:12:00,42.1,14.4,29.19,WNW,292,4.0,10.0,32,0.00,,,0.00,meteohub,2013-11-07 00:12:00,
2013-11-06 18:17:00,42.1,14.4,29.19,WNW,292,6.0,9.0,32,0.00,,,0.00,meteohub,2013-11-07 00:17:00,
2013-11-06 18:22:00,42.1,14.4,29.19,NNW,338,6.0,9.0,32,0.00,,,0.00,meteohub,2013-11-07 00:22:00,
2013-11-06 18:27:00,42.3,13.8,29.22,WNW,292,5.0,8.0,31,0.00,,,0.00,meteohub,2013-11-07 00:27:00,
2013-11-06 18:32:00,42.4,12.6,29.22,WSW,248,6.0,10.0,29,0.00,,,0.00,meteohub,2013-11-07 00:32:00,
2013-11-06 18:37:00,42.4,12.6,29.22,WNW,292,6.0,14.0,29,0.00,,,0.00,meteohub,2013-11-07 00:37:00,
2013-11-06 18:42:00,42.4,12.6,29.22,WNW,292,7.0,14.0,29,0.00,,,0.00,meteohub,2013-11-07 00:42:00,
2013-11-06 18:47:00,42.4,12.6,29.22,WNW,292,2.0,14.0,29,0.00,,,0.00,meteohub,2013-11-07 00:47:00,
2013-11-06 18:52:00,42.3,12.4,29.22,NW,315,9.0,13.0,29,0.00,,,0.00,meteohub,2013-11-07 00:52:00,
2013-11-06 18:57:00,42.3,12.4,29.22,WNW,292,7.0,13.0,29,0.00,,,0.00,meteohub,2013-11-07 00:57:00,
2013-11-06 19:02:00,42.3,12.4,29.22,WNW,292,9.0,12.0,29,0.00,,,0.00,meteohub,2013-11-07 01:02:00,
2013-11-06 19:07:00,42.3,12.4,29.22,NW,315,6.0,12.0,29,0.00,,,0.00,meteohub,2013-11-07 01:07:00,
2013-11-06 19:12:00,42.1,12.2,29.22,WNW,292,9.0,13.0,29,0.00,,,0.00,meteohub,2013-11-07 01:12:00,
2013-11-06 19:17:00,42.1,11.5,29.22,West,270,6.0,15.0,28,0.00,,,0.00,meteohub,2013-11-07 01:17:00,
2013-11-06 19:22:00,42.1,11.5,29.22,WNW,292,9.0,15.0,28,0.00,,,0.00,meteohub,2013-11-07 01:22:00,
2013-11-06 19:27:00,42.1,11.5,29.25,WNW,292,3.0,15.0,28,0.00,,,0.00,meteohub,2013-11-07 01:27:00,
2013-11-06 19:32:00,42.3,9.9,29.25,WNW,292,5.0,12.0,26,0.00,,,0.00,meteohub,2013-11-07 01:32:00,
2013-11-06 19:37:00,42.3,9.9,29.25,WNW,292,3.0,12.0,26,0.00,,,0.00,meteohub,2013-11-07 01:37:00,
2013-11-06 19:42:00,42.3,9.9,29.25,NNW,338,4.0,10.0,26,0.00,,,0.00,meteohub,2013-11-07 01:42:00,
2013-11-06 19:47:00,42.3,7.2,29.25,WSW,248,3.0,10.0,23,0.00,,,0.00,meteohub,2013-11-07 01:47:00,
2013-11-06 19:52:00,42.3,7.2,29.25,WNW,292,6.0,13.0,23,0.00,,,0.00,meteohub,2013-11-07 01:52:00,
2013-11-06 19:57:00,42.3,5.2,29.25,WNW,292,6.0,13.0,21,0.00,,,0.00,meteohub,2013-11-07 01:57:00,
2013-11-06 20:02:00,42.3,5.2,29.25,WNW,292,6.0,13.0,21,0.00,,,0.00,meteohub,2013-11-07 02:02:00,
2013-11-06 20:07:00,42.3,1.9,29.25,NNW,338,3.0,12.0,18,0.00,,,0.00,meteohub,2013-11-07 02:07:00,
2013-11-06 20:12:00,42.4,2.1,29.25,NNW,338,4.0,12.0,18,0.00,,,0.00,meteohub,2013-11-07 02:12:00,
2013-11-06 20:17:00,42.4,2.1,29.25,WNW,292,9.0,12.0,18,0.00,,,0.00,meteohub,2013-11-07 02:17:00,
2013-11-06 20:22:00,42.4,2.1,29.25,NNW,338,7.0,12.0,18,0.00,,,0.00,meteohub,2013-11-07 02:22:00,
2013-11-06 20:27:00,42.4,2.1,29.25,WNW,292,8.0,11.0,18,0.00,,,0.00,meteohub,2013-11-07 02:27:00,
2013-11-06 20:32:00,42.4,2.1,29.25,WNW,292,5.0,11.0,18,0.00,,,0.00,meteohub,2013-11-07 02:32:00,
2013-11-06 20:37:00,42.3,1.9,29.25,WNW,292,7.0,11.0,18,0.00,,,0.00,meteohub,2013-11-07 02:37:00,
2013-11-06 20:43:00,42.1,5.0,29.25,West,270,8.0,11.0,21,0.00,,,0.00,meteohub,2013-11-07 02:43:00,
2013-11-06 20:48:00,41.7,4.8,29.25,NW,315,9.0,11.0,21,0.00,,,0.00,meteohub,2013-11-07 02:48:00,
2013-11-06 20:53:00,41.5,6.6,29.25,WNW,292,6.0,10.0,23,0.00,,,0.00,meteohub,2013-11-07 02:53:00,
2013-11-06 20:58:00,41.4,9.1,29.25,NNW,338,6.0,10.0,26,0.00,,,0.00,meteohub,2013-11-07 02:58:00,
2013-11-06 21:03:00,41.2,10.6,29.25,West,270,6.0,9.0,28,0.00,,,0.00,meteohub,2013-11-07 03:03:00,
2013-11-06 21:08:00,41.0,10.4,29.25,West,270,6.0,9.0,28,0.00,,,0.00,meteohub,2013-11-07 03:08:00,
2013-11-06 21:13:00,40.6,10.9,29.25,West,270,4.0,9.0,29,0.00,,,0.00,meteohub,2013-11-07 03:13:00,
2013-11-06 21:18:00,40.3,10.6,29.25,WNW,292,4.0,9.0,29,0.00,,,0.00,meteohub,2013-11-07 03:18:00,
2013-11-06 21:23:00,40.1,11.3,29.25,WSW,248,6.0,9.0,30,0.00,,,0.00,meteohub,2013-11-07 03:23:00,
2013-11-06 21:28:00,40.1,12.0,29.25,WSW,248,3.0,7.0,31,0.00,,,0.00,meteohub,2013-11-07 03:28:00,
2013-11-06 21:33:00,40.1,12.0,29.25,NW,315,3.0,6.0,31,0.00,,,0.00,meteohub,2013-11-07 03:33:00,
2013-11-06 21:38:00,39.9,12.6,29.25,SW,225,0.0,6.0,32,0.00,,,0.00,meteohub,2013-11-07 03:38:00,
2013-11-06 21:43:00,39.9,12.6,29.25,WNW,292,8.0,8.0,32,0.00,,,0.00,meteohub,2013-11-07 03:43:00,
2013-11-06 21:48:00,40.1,13.5,29.25,WNW,292,0.0,8.0,33,0.00,,,0.00,meteohub,2013-11-07 03:48:00,
2013-11-06 21:53:00,40.1,13.5,29.25,North,0,4.0,8.0,33,0.00,,,0.00,meteohub,2013-11-07 03:53:00,
2013-11-06 21:58:00,40.1,14.0,29.25,WNW,292,6.0,8.0,34,0.00,,,0.00,meteohub,2013-11-07 03:58:00,
2013-11-06 22:03:00,40.1,14.0,29.25,WNW,292,4.0,8.0,34,0.00,,,0.00,meteohub,2013-11-07 04:03:00,
2013-11-06 22:08:00,39.9,13.8,29.25,West,270,6.0,8.0,34,0.00,,,0.00,meteohub,2013-11-07 04:08:00,
2013-11-06 22:13:00,39.9,13.8,29.25,West,270,5.0,8.0,34,0.00,,,0.00,meteohub,2013-11-07 04:13:00,
2013-11-06 22:18:00,39.9,13.8,29.25,North,0,2.0,8.0,34,0.00,,,0.00,meteohub,2013-11-07 04:18:00,
2013-11-06 22:23:00,39.9,14.5,29.25,WNW,292,6.0,8.0,35,0.00,,,0.00,meteohub,2013-11-07 04:23:00,
2013-11-06 22:28:00,39.7,14.4,29.25,WSW,248,6.0,8.0,35,0.00,,,0.00,meteohub,2013-11-07 04:28:00,
2013-11-06 22:33:00,39.7,14.4,29.25,WNW,292,5.0,8.0,35,0.00,,,0.00,meteohub,2013-11-07 04:33:00,
2013-11-06 22:38:00,39.7,14.4,29.25,WSW,248,9.0,9.0,35,0.00,,,0.00,meteohub,2013-11-07 04:38:00,
2013-11-06 22:43:00,39.6,14.2,29.28,West,270,5.0,9.0,35,0.00,,,0.00,meteohub,2013-11-07 04:43:00,
2013-11-06 22:48:00,39.4,14.0,29.28,WNW,292,10.0,10.0,35,0.00,,,0.00,meteohub,2013-11-07 04:48:00,
2013-11-06 22:53:00,39.0,13.8,29.28,WSW,248,8.0,10.0,35,0.00,,,0.00,meteohub,2013-11-07 04:53:00,
2013-11-06 22:58:00,38.7,14.0,29.28,WSW,248,5.0,10.0,36,0.00,,,0.00,meteohub,2013-11-07 04:58:00,
2013-11-06 23:01:00,38.7,14.0,29.28,WNW,292,5.0,10.0,36,0.00,,,0.00,meteohub,2013-11-07 05:01:00,
2013-11-06 23:02:00,38.5,14.0,29.28,West,270,6.0,10.0,36,0.00,,,0.00,meteohub,2013-11-07 05:02:00,
2013-11-06 23:06:00,38.1,13.6,29.28,NNW,338,4.0,10.0,36,0.00,,,0.00,meteohub,2013-11-07 05:06:00,
2013-11-06 23:11:00,37.8,13.8,29.28,WSW,248,4.0,8.0,37,0.00,,,0.00,meteohub,2013-11-07 05:11:00,
2013-11-06 23:16:00,37.6,14.4,29.28,WNW,292,8.0,8.0,38,0.00,,,0.00,meteohub,2013-11-07 05:16:00,
2013-11-06 23:21:00,37.4,14.7,29.28,WNW,292,6.0,8.0,39,0.00,,,0.00,meteohub,2013-11-07 05:21:00,
2013-11-06 23:26:00,37.0,14.4,29.28,West,270,3.0,8.0,39,0.00,,,0.00,meteohub,2013-11-07 05:26:00,
2013-11-06 23:31:00,37.0,13.3,29.28,WNW,292,4.0,8.0,37,0.00,,,0.00,meteohub,2013-11-07 05:31:00,
2013-11-06 23:36:00,37.0,8.6,29.28,WNW,292,4.0,10.0,30,0.00,,,0.00,meteohub,2013-11-07 05:36:00,
2013-11-06 23:41:00,37.6,-0.8,29.31,NNW,338,8.0,10.0,19,0.00,,,0.00,meteohub,2013-11-07 05:41:00,
2013-11-06 23:46:00,37.9,-4.2,29.31,NW,315,8.0,13.0,16,0.00,,,0.00,meteohub,2013-11-07 05:46:00,
2013-11-06 23:51:00,37.9,-4.2,29.31,NNW,338,4.0,13.0,16,0.00,,,0.00,meteohub,2013-11-07 05:51:00,
2013-11-06 23:56:00,37.9,-4.2,29.31,West,270,10.0,13.0,16,0.00,,,0.00,meteohub,2013-11-07 05:56:00,